Terminal Aerodrome Forecast
Issued by NWS

Home | Current Version | Previous Version | Text Only | Print | Product List | Glossary Off
Versions: 1 2 3 4 5 6 7 8 9 10 11 12 13 14 15 16 17 18 19 20 21 22 23 24 25 26 27 28 29 30 31 32 33

000
FTUS43 KLOT 290040 AAA
TAFORD
TAF AMD
KORD 290040Z 2901/3006 19015G23KT P6SM SCT040 SCT250
     FM290130 19012KT P6SM VCTS SCT040CB SCT250
      TEMPO 2903/2904 3SM -TSRA OVC030CB
     FM290500 20010KT P6SM SCT250
     FM291500 23014G22KT P6SM SCT050
     FM292100 27014G22KT P6SM FEW060
     FM300200 24006KT P6SM SKC=

USA.gov is the U.S. government's official web portal to all federal, state and local government web resources and services.